Preview of NWS' New Version of Forecast
This preview is not operational and should not be used for support decisions.

Regional Weather Roundup (RWR)

Issued by National Weather Service (NWS)

                            
000
ASPQ40 PGUM 240110
RWRPQ 
WEATHER ROUNDUP FOR THE MARIANAS AND MICRONESIA
NATIONAL WEATHER SERVICE TIYAN GU
1100 AM CHST SAT AUG 24 2019

GUZ001>004-240200-
MARIANA ISLANDS-
  
CITY           SKY/WX    TMP DP  RH WIND       PRES   REMARKS
GUAM AIRPORT   MOSUNNY   84  79  84 E18G24    29.83R HX  96           
ANDERSEN AFB   LGT RAIN  82  77  83 E12       29.83  HX  91           
ROTA AIRPORT   LGT RAIN  81  77  89 E18       29.79F                  
TINIAN AP      PTSUNNY   86  77  74 E17       29.80F HX  97           
SAIPAN AP      MOSUNNY   88  77  70 E16       29.81F HX 100           

$$

PMZ161-240200-
REPUBLIC OF PALAU-
  
CITY           SKY/WX    TMP DP  RH WIND       PRES   REMARKS
KOROR AP       LGT RAIN  75  73  94 NW3       29.89S                  
KOROR WSO      NOT AVBL                                               

$$

PMZ171>174-240200-
FEDERATED STATES OF MICRONESIA-
  
CITY           SKY/WX    TMP DP  RH WIND       PRES   REMARKS
YAP AIRPORT    PTSUNNY   82  75  78 N9        29.81F                  
CHUUK AP       LGT RAIN  81  79  94 S8        29.83F                  
POHNPEI AP     LGT RAIN  84  77  79 NW7       29.85F HX  94           
POHNPEI WSO    CLOUDY    81  77  89 CALM      29.89F                  
KOSRAE AP      PTSUNNY   86  75  70 NE10      29.84F HX  95           

$$

PMZ181-240200-
REPUBLIC OF THE MARSHALL ISLANDS-
  
CITY           SKY/WX    TMP DP  RH WIND       PRES   REMARKS
KWAJALEIN AP   PTSUNNY   86  77  74 NE6       29.84F HX  97           
MAJURO AP      NOT AVBL                                               
MAJURO WSO     NOT AVBL                                               

$$